Regional Weather Roundup
Issued by NWS

Home | Current Version | Previous Version | Text Only | Print | Product List | Glossary Off
Versions: 1 2 3 4 5 6 7 8 9 10 11 12 13 14 15 16 17 18 19 20 21 22 23 24 25 26 27 28 29 30 31 32 33 34 35 36 37 38 39 40 41 42 43 44 45 46 47 48 49 50

000
ASUS45 KBOI 251110
RWRID

IDAHO REGIONAL WEATHER ROUNDUP
NATIONAL WEATHER SERVICE BOISE ID
500 AM MDT MON MAY 25 2015

NOTE: "FAIR" INDICATES FEW OR NO CLOUDS BELOW 12000 FEET
WITH NO SIGNIFICANT WEATHER AND/OR OBSTRUCTIONS TO VISIBILITY

IDZ012-014-251200-
SOUTHWEST IDAHO


CITY           SKY/WX    TMP DP  RH WIND       PRES   REMARKS
BOISE          CLEAR     55  46  71 SE7       29.86F
CALDWELL       CLEAR     50  39  66 E5        29.86S
MOUNTAIN HOME  CLEAR     47  43  84 NE1       29.87S
$$

IDZ016-017-251200-
SOUTHCENTRAL IDAHO


CITY           SKY/WX    TMP DP  RH WIND       PRES   REMARKS
BURLEY         CLOUDY    46  42  86 CALM      29.91S
JEROME         PTCLDY    48  43  82 E7        29.91F
TWIN FALLS     MOCLDY    52  44  74 S10       29.89S
$$

IDZ019>023-251200-
SOUTHEAST IDAHO


CITY           SKY/WX    TMP DP  RH WIND       PRES   REMARKS
IDAHO FALLS    FOG       42  41  96 SW3       29.94R VSB 1/2
POCATELLO      CLEAR     49  46  90 SW8       29.93S
REXBURG        PTCLDY    46  43  89 S6        29.93S
$$

IDZ006-010-011-018-031-032-251200-
CENTRAL IDAHO MOUNTAINS


CITY           SKY/WX    TMP DP  RH WIND       PRES   REMARKS
MCCALL         CLEAR     40  37  89 CALM      29.92S
HAILEY         PTCLDY    45  41  87 NW8       29.97S
STANLEY          N/A     32  30  92 CALM      30.01S
SALMON         CLEAR     43  39  87 CALM      29.94S
CHALLIS        PTCLDY    43  37  79 S3        29.95S
$$

IDZ002-004-006-007-026-251200-
NORTHERN IDAHO


CITY           SKY/WX    TMP DP  RH WIND       PRES   REMARKS
LEWISTON       MOCLDY    59  52  77 E3        29.82R
LOWELL           N/A     51  49  92 CALM      29.89S
COEUR D`ALENE  MOCLDY    55  50  82 NE8       29.84S
MULLAN PASS    MOCLDY    47  37  68 S5        29.94F
$$


USA.gov is the U.S. government's official web portal to all federal, state and local government web resources and services.